Regional Weather Roundup
Issued by NWS

Home | Current Version | Previous Version | Graphics & Text | Print | Product List | Glossary Off
Versions: 1 2 3 4 5 6 7 8 9 10 11 12 13 14 15 16 17 18 19 20 21 22 23 24 25 26 27

000
ASUS43 KDMX 221907
RWRIA

WEATHER ROUNDUP FOR IOWA
NATIONAL WEATHER SERVICE DES MOINES IA
200 PM CDT TUE APR 22 2014

NOTE: "FAIR" INDICATES FEW OR NO CLOUDS BELOW 12,000 FEET WITH NO
SIGNIFICANT WEATHER AND/OR OBSTRUCTIONS TO VISIBILITY.

* - THESE STATIONS ARE NOT NWS STATIONS...THUS NOT UNDER NWS
QUALITY CONTROL.  THEY ALSO DO NOT REPORT WEATHER SUCH
AS PRECIPITATION OR FOG.

IAZ001>003-012>014-020>022-031>034-043>046-222000-
   NORTHWEST IOWA

CITY           SKY/WX    TMP DP  RH WIND       PRES   REMARKS
CARROLL *      SUNNY     61  32  33 NE8G14    30.10F
CHEROKEE *     SUNNY     66  32  28 NW3       30.10F
DENISON *      SUNNY     61  32  33 VRB5      30.09F
LE MARS *      SUNNY     64  32  29 S8        30.09F
ORANGE CITY *  SUNNY     64  28  25 SE6       30.08F
SHELDON *      SUNNY     63  30  29 SW7       30.08F
SIOUX CITY     SUNNY     65  31  28 MISG      30.09F
SPENCER        SUNNY     63  31  30 MISG      30.10F
STORM LAKE *   SUNNY     61  32  33 NE8       30.11F
$$

IAZ055>058-069>071-079>083-090>094-222000-
   SOUTHWEST IOWA

CITY           SKY/WX    TMP DP  RH WIND       PRES   REMARKS
ATLANTIC *     SUNNY     63  32  31 NE5G12    30.10F
AUDUBON *      SUNNY     63  23  22 NE5       30.11F
CLARINDA *     SUNNY     64  32  29 VRB7      30.11F
COUNCIL BLFS * SUNNY     63  34  34 NE5       30.09F
CRESTON *      SUNNY     61  30  31 VRB6G17   30.10F
HARLAN  *      SUNNY     63  32  31 VRB7      30.13F
LAMONI         SUNNY     63  35  35 VRB6      30.10F
RED OAK *      SUNNY     63  32  31 CALM      30.10F
SHENANDOAH *   SUNNY     64  32  29 E7        30.11F
$$

IAZ047>049-059>061-072>074-084-222000-
   CENTRAL IOWA

CITY           SKY/WX    TMP DP  RH WIND       PRES   REMARKS
AMES           SUNNY     61  32  33 NE10      30.10F
ANKENY *       SUNNY     61  34  36 N9G17     30.09F
CHARITON *     SUNNY     61  32  33 N13       30.09F
DES MOINES     MOSUNNY   63  30  28 E12G17    30.10F
GRINNELL*      SUNNY     61  28  29 N9        30.09F
KNOXVILLE *    SUNNY     61  28  29 VRB5G16   30.08F
MARSHALLTOWN   SUNNY     60  33  36 N16G24    30.09F
NEWTON *       SUNNY     61  30  31 NW10G21   30.10F
PELLA *        SUNNY     63  32  31 N10       30.10F
PERRY *          N/A     63  25  23 N12       30.10F
$$

IAZ004>006-015-016-023>025-035-036-222000-
   NORTH CENTRAL IOWA

CITY           SKY/WX    TMP DP  RH WIND       PRES   REMARKS
ALGONA *       SUNNY     59  34  38 N10G17    30.10F
CLARION *      SUNNY     57  37  47 N13G18    30.10F
ESTHERVILLE    SUNNY     59  34  39 NE6       30.09F
FORT DODGE *   SUNNY     59  36  41 E9G17     30.11F
MASON CITY     SUNNY     58  32  37 N18       30.11F
FOREST CITY *  SUNNY     57  32  38 N17G23    30.10F
IOWA FALLS *     N/A     59  34  38 NW9G21    30.11F
$$

IAZ007>011-017>019-026>030-037>042-050>054-066-222000-
   NORTHEAST IOWA

CITY           SKY/WX    TMP DP  RH WIND       PRES   REMARKS
CEDAR RAPIDS   SUNNY     59  31  34 N18       30.05F
CHARLES CITY * SUNNY     54  36  50 N21G28    30.09F
CLINTON *      SUNNY     61  27  27 NW18      30.04F
DECORAH *      SUNNY     54  30  40 N18G26    30.05F
DUBUQUE        SUNNY     57  30  35 NW14G23   30.02F
MONTICELLO *   SUNNY     59  30  33 NW15G23   30.04F
OELWEIN *      SUNNY    N/A N/A N/A N17G29    30.08S
WATERLOO       SUNNY     58  31  35 N17G32    30.08F
$$

IAZ064-065-067-068-078-222000-
   EAST CENTRAL IOWA

CITY           SKY/WX    TMP DP  RH WIND       PRES   REMARKS
DAVENPORT      SUNNY     61  31  32 N16G23    30.04F
IOWA CITY      SUNNY     59  33  37 NW13G22   30.07F
MT. PLEASANT * SUNNY     61  27  27 NW14G25   30.06F
MUSCATINE *    SUNNY     61  30  31 N18G24    30.05F
QUAD CITIES    SUNNY     61  28  28 N10G21    30.01F
$$

IAZ062-063-075>077-085>089-095>099-222000-
   SOUTHEAST IOWA

CITY           SKY/WX    TMP DP  RH WIND       PRES   REMARKS
BURLINGTON     SUNNY     62  30  29 N15G22    30.04F
FAIRFIELD *    SUNNY     59  30  33 NW13G22   30.08S
FORT MADISON * SUNNY     61  34  36 NW13G22   30.06F
KEOKUK *       SUNNY     63  34  34 N13G21    30.05F
OSKALOOSA *      N/A     63  30  29 N13G18    30.08F
CENTERVILLE *  SUNNY     59  36  41 N9        30.11F
OTTUMWA        SUNNY     61  32  33 N16       30.08F
WASHINGTON *   SUNNY     61  32  33 NW17G25   30.06F
$$

ABBREVIATIONS USED IN REMARKS
   TC - TEMPERATURES IN CELSIUS
  WCI - WIND CHILL INDEX
   HX - HEAT INDEX
  VSB - VISIBILITY
$$




USA.gov is the U.S. government's official web portal to all federal, state and local government web resources and services.